GW4745 Weather Reports


Display with metric or nautical units.
time (UTC)temp
F
wind
direction
speed
MPH
gust
MPH
rain 1hr
in
rain 24hr
in
rain mn
in
humidity
%
barometer
mb
20260504160112 70 150 2.0 7.0 0.00 0.00 0.00 42 1016.6
20260504150104 66 150 4.0 8.0 0.00 0.00 0.00 44 1017.4
20260504081600 42 0 0.0 0.0 0.00 0.00 0.00 86 1016.6
20260504080103 42 0 0.0 1.0 0.00 0.00 0.00 86 1016.5
20260504060104 44 0 0.0 0.0 0.00 0.00 0.00 81 1016.7
20260504044559 47 150 0.0 2.0 0.00 0.00 0.00 76 1017.0
20260504043101 48 150 0.0 1.0 0.00 0.00 0.00 73 1016.8
20260504041609 50 0 0.0 0.0 0.00 0.00 0.00 70 1016.7
20260504034625 49 0 0.0 0.0 0.00 0.00 0.00 71 1016.8
20260504033110 49 0 0.0 1.0 0.00 0.00 0.00 70 1016.7
20260504031559 49 0 0.0 0.0 0.00 0.00 0.00 68 1016.9
20260504030058 50 0 0.0 0.0 0.00 0.00 0.00 68 1017.0
20260504024559 50 0 0.0 0.0 0.00 0.00 0.00 67 1016.9
20260504023058 51 0 0.0 1.0 0.00 0.00 0.00 67 1016.8
20260504021600 51 150 0.0 0.0 0.00 0.00 0.00 63 1016.7
20260504020132 51 150 0.0 0.0 0.00 0.00 0.00 64 1016.6
20260504014603 52 0 0.0 0.0 0.00 0.00 0.00 64 1016.1
20260504013125 53 0 0.0 0.0 0.00 0.00 0.00 62 1015.9
20260504011557 55 0 0.0 0.0 0.00 0.00 0.00 60 1015.8
20260504010101 56 0 0.0 0.0 0.00 0.00 0.00 57 1015.8
20260504004559 58 0 0.0 0.0 0.00 0.00 0.00 52 1015.7
20260504003058 59 0 0.0 0.0 0.00 0.00 0.00 49 1015.6
20260504001601 61 0 0.0 0.0 0.00 0.00 0.00 46 1015.4
20260504000107 62 150 0.0 0.0 0.00 0.00 0.00 41 1015.4
20260503234600 64 150 1.0 2.0 0.00 0.00 0.00 39 1015.3
20260503233059 65 150 2.0 6.0 0.00 0.00 0.00 36 1015.2
20260503231559 67 150 2.0 5.0 0.00 0.00 0.00 35 1015.4
20260503230104 66 150 4.0 8.0 0.00 0.00 0.00 32 1015.3
20260503224613 66 150 3.0 8.0 0.00 0.00 0.00 33 1015.3
20260503223100 67 150 4.0 9.0 0.00 0.00 0.00 30 1015.4
20260503221604 68 150 2.0 8.0 0.00 0.00 0.00 28 1015.4
20260503220059 67 150 3.0 9.0 0.00 0.00 0.00 27 1015.4
20260503214559 66 150 4.0 11.0 0.00 0.00 0.00 29 1015.6
20260503213103 67 150 7.0 12.0 0.00 0.00 0.00 29 1015.8
20260503211600 66 150 4.0 9.0 0.00 0.00 0.00 30 1015.9
20260503210059 66 150 4.0 12.0 0.00 0.00 0.00 29 1016.0
20260503204620 65 150 3.0 8.0 0.00 0.00 0.00 30 1016.2
20260503203101 65 150 6.0 16.0 0.00 0.00 0.00 30 1016.5
20260503201559 64 150 4.0 13.0 0.00 0.00 0.00 32 1016.6
20260503200100 65 150 3.0 15.0 0.00 0.00 0.00 32 1017.0
20260503194610 64 150 4.0 10.0 0.00 0.00 0.00 33 1017.3
20260503193117 65 150 4.0 11.0 0.00 0.00 0.00 33 1017.3
20260503191618 64 150 2.0 12.0 0.00 0.00 0.00 32 1017.4
20260503184616 63 150 4.0 10.0 0.00 0.00 0.00 31 1017.8
20260503183058 62 150 2.0 8.0 0.00 0.00 0.00 32 1017.9
20260503181601 62 150 2.0 9.0 0.00 0.00 0.00 31 1018.3
20260503174604 61 150 3.0 7.0 0.00 0.00 0.00 32 1018.5
20260503173106 61 150 2.0 8.0 0.00 0.00 0.00 32 1018.7
20260503171600 60 150 1.0 11.0 0.00 0.00 0.00 34 1018.9